Weather History for Luxor, Egypt

Change the Weather History Date:

Saturday, April 13, 2013

  Actual Average Record
Temperature  
Mean Temperature 76 °F -  
Max Temperature 91 °F 94 °F 105 °F (1998)
Min Temperature 61 °F 65 °F 55 °F (2007)
Cooling Degree Days 11    
Growing Degree Days 26 (Base 50)    
Moisture  
Dew Point 47 °F    
Average Humidity 36    
Maximum Humidity 60    
Minimum Humidity 15    
Precipitation  
Precipitation 0.00 in 0.00 in - ()
Sea Level Pressure  
Sea Level Pressure 29.96 in    
Wind  
Wind Speed 2 mph ()    
Max Wind Speed 7 mph    
Max Gust Speed -    
Visibility 6.0 miles    
Events      
Averages and records for this station are not official NWS values.
T = Trace of Precipitation, MM = Missing Value Source: Averaged Metar Reports

Daily Weather History Graph

Daily Weather History Graph

Search for Another Location

Airport:

Trip Planner

Search our weather history database for the weather conditions in past years. The results will help you decide how hot, cold, wet, or windy it might be!

Date:

Astronomy

Apr. 13, 2013 Rise Set
Actual Time 5:28 AM EET 6:11 PM EET
Civil Twilight 5:04 AM EET 6:34 PM EET
Nautical Twilight 4:37 AM EET 7:02 PM EET
Astronomical Twilight 4:09 AM EET 7:30 PM EET
Moon 7:20 AM EET (4/13) 9:01 PM EET (4/13)
Length of Visible Light 13h 29m
Length of Day
12h 43m
Waxing Crescent, 9% of the Moon is Illuminated
Apr 13
Waxing Crescent
Apr 18
First Quarter
Apr 25
Full
May 2
Last Quarter
May 10
New

Hourly Weather History & Observations

Time (EET) Temp. Dew Point Humidity Pressure Visibility Wind Dir Wind Speed Gust Speed Precip Events Conditions
12:00 AM 71.6 °F 42.8 °F 35% 29.92 in - Calm Calm - N/A   Clear
1:00 AM 69.8 °F 44.6 °F 40% 29.92 in - WSW 2.3 mph - N/A   Clear
2:00 AM 69 °F 44 °F 30% 29.92 in 6 mi Calm Calm - -  
2:00 AM 69.8 °F 44.6 °F 40% 29.92 in - Calm Calm - N/A   Clear
3:00 AM 64.4 °F 46.4 °F 52% 29.92 in - WSW 4.6 mph - N/A   Clear
4:00 AM 64.4 °F 46.4 °F 52% 29.92 in - WSW 2.3 mph - N/A   Clear
5:00 AM 62.6 °F 46.4 °F 55% 29.95 in - WSW 3.5 mph - N/A   Clear
6:00 AM 62.6 °F 48.2 °F 59% 29.98 in - West 5.8 mph - N/A   Clear
7:00 AM 66.2 °F 51.8 °F 60% 29.98 in - SSW 2.3 mph - N/A   Clear
8:00 AM 72 °F 50 °F 34% 29.99 in 6 mi NNW 2.3 mph - -  
8:00 AM 71.6 °F 51.8 °F 50% 29.98 in - NNW 2.3 mph - N/A   Clear
9:00 AM 77.0 °F 48.2 °F 36% 30.01 in - NNW 6.9 mph - N/A   Clear
10:00 AM 78.8 °F 46.4 °F 32% 30.01 in - NNW 4.6 mph - N/A   Clear
11:00 AM 80.6 °F 48.2 °F 32% 30.01 in - NNW 4.6 mph - N/A   Clear
12:00 PM 84.2 °F 48.2 °F 29% 29.98 in - NNW 4.6 mph - N/A   Clear
1:00 PM 86.0 °F 46.4 °F 25% 29.98 in - NW 2.3 mph - N/A   Clear
2:00 PM 88 °F 47 °F 15% 29.94 in 6 mi NNW 4.6 mph - -  
2:00 PM 87.8 °F 46.4 °F 24% 29.95 in - NNW 4.6 mph - N/A   Clear
3:00 PM 89.6 °F 44.6 °F 21% 29.92 in - West 3.5 mph - N/A   Clear
4:00 PM 91.4 °F 42.8 °F 18% 29.92 in - NNW 2.3 mph - N/A   Clear
5:00 PM - - N/A% - - Calm Calm - N/A   Clear
6:00 PM - - N/A% 29.92 in - Calm Calm - N/A   Clear
7:00 PM 80.6 °F 48.2 °F 32% 29.95 in - WNW 3.5 mph - N/A   Clear
8:00 PM 78 °F 47 °F 23% 29.94 in 6 mi West 3.5 mph - -  
8:00 PM 78.8 °F 46.4 °F 32% 29.95 in - West 3.5 mph - N/A   Clear
9:00 PM 75.2 °F 48.2 °F 38% 29.95 in - WSW 4.6 mph - N/A   Clear
10:00 PM 75.2 °F 46.4 °F 36% 29.98 in - SW 5.8 mph - N/A   Clear
11:00 PM 71.6 °F 48.2 °F 43% 29.98 in - SW 3.5 mph - N/A   Clear